Terminal Aerodrome Forecast
Issued by NWS La Crosse, WI

Home | Current Version | Previous Version | Text Only | Print | Product List | Glossary On
Versions: 1 2 3 4 5 6 7 8 9 10 11 12 13 14 15 16 17 18 19 20 21 22 23 24 25 26 27 28 29 30 31 32 33
000
FTUS43 KARX 010531
TAFLSE
TAF
KLSE 010531Z 0106/0206 04012KT 1 1/2SM -SN OVC015
     FM011500 01012G20KT 4SM -SN OVC015
     FM012100 01012G18KT P6SM -SN OVC020
     FM020000 35006KT P6SM BKN025=

USA.gov is the U.S. government's official web portal to all federal, state and local government web resources and services.